Time,TemperatureF,DewpointF,PressureIn,WindDirection,WindDirectionDegrees,WindSpeedMPH,WindSpeedGustMPH,Humidity,HourlyPrecipIn,Conditions,Clouds,dailyrainin,SoftwareType,DateUTC
2013-01-10 00:01:00,25.7,25.2,27.96,SSE,158,0.0,0.0,98,0.00,,---,0.00,VWS V14.01,2013-01-10 08:01:00,
2013-01-10 00:06:00,25.7,25.2,27.96,SSE,158,0.0,0.0,98,0.00,,---,0.00,VWS V14.01,2013-01-10 08:06:00,
2013-01-10 00:11:00,25.7,25.2,27.96,SSE,158,0.0,0.0,98,0.00,,---,0.00,VWS V14.01,2013-01-10 08:11:00,
2013-01-10 00:16:00,25.3,24.9,27.96,SSE,158,0.0,0.0,98,0.00,,---,0.00,VWS V14.01,2013-01-10 08:16:00,
2013-01-10 00:21:00,25.3,24.9,27.96,SSE,158,0.0,0.0,98,0.00,,---,0.00,VWS V14.01,2013-01-10 08:21:00,
2013-01-10 00:26:00,25.5,25.0,27.96,SSE,158,0.0,0.0,98,0.00,,---,0.00,VWS V14.01,2013-01-10 08:26:00,
2013-01-10 00:31:00,25.5,25.0,27.96,SSE,158,0.0,0.9,98,0.00,,---,0.00,VWS V14.01,2013-01-10 08:31:00,
2013-01-10 00:36:00,25.5,25.0,27.96,SSE,158,0.0,0.0,98,0.00,,---,0.00,VWS V14.01,2013-01-10 08:36:00,
2013-01-10 00:41:00,25.3,24.9,27.96,SSE,158,0.0,0.0,98,0.00,,---,0.00,VWS V14.01,2013-01-10 08:41:00,
2013-01-10 00:46:00,25.7,25.2,27.96,SSE,158,0.0,0.0,98,0.00,,---,0.00,VWS V14.01,2013-01-10 08:46:00,
2013-01-10 00:51:00,25.5,25.0,27.96,SSE,158,0.0,0.0,98,0.00,,---,0.00,VWS V14.01,2013-01-10 08:51:00,
2013-01-10 00:56:00,25.3,24.9,27.96,SSE,158,0.0,0.0,98,0.00,,---,0.00,VWS V14.01,2013-01-10 08:56:00,
2013-01-10 01:01:00,25.3,24.9,27.96,SSE,158,0.0,0.0,98,0.00,,---,0.00,VWS V14.01,2013-01-10 09:01:00,
2013-01-10 01:06:00,25.3,24.9,27.96,SSE,158,0.0,0.0,98,0.00,,---,0.00,VWS V14.01,2013-01-10 09:06:00,
2013-01-10 01:11:00,25.5,25.0,27.96,SSE,158,0.0,0.0,98,0.00,,---,0.00,VWS V14.01,2013-01-10 09:11:00,
2013-01-10 01:16:00,25.3,24.9,27.96,SSE,158,0.0,0.0,98,0.00,,---,0.00,VWS V14.01,2013-01-10 09:16:00,
2013-01-10 01:21:00,25.5,25.0,27.96,SSE,158,0.0,0.0,98,0.00,,---,0.00,VWS V14.01,2013-01-10 09:21:00,
2013-01-10 01:26:00,25.3,24.9,27.96,SSE,158,0.0,0.0,98,0.00,,---,0.00,VWS V14.01,2013-01-10 09:26:00,
2013-01-10 01:31:00,25.3,24.9,27.99,SSE,158,0.0,0.0,98,0.00,,---,0.00,VWS V14.01,2013-01-10 09:31:00,
2013-01-10 01:36:00,24.6,24.1,27.99,SSE,158,0.0,0.0,98,0.00,,---,0.00,VWS V14.01,2013-01-10 09:36:00,
2013-01-10 01:42:00,24.6,23.9,27.99,SSE,158,0.0,0.0,97,0.00,,---,0.00,VWS V14.01,2013-01-10 09:42:00,
2013-01-10 01:46:00,24.8,24.1,27.99,SSE,158,0.9,1.1,97,0.00,,---,0.00,VWS V14.01,2013-01-10 09:46:00,
2013-01-10 01:52:00,24.6,23.9,27.99,SSE,158,0.0,0.0,97,0.00,,---,0.00,VWS V14.01,2013-01-10 09:52:00,
2013-01-10 01:57:00,24.4,23.7,27.99,SSE,158,0.0,0.0,97,0.00,,---,0.00,VWS V14.01,2013-01-10 09:57:00,
2013-01-10 02:02:00,24.3,23.5,27.99,SSE,158,0.0,0.0,97,0.00,,---,0.00,VWS V14.01,2013-01-10 10:02:00,
2013-01-10 02:07:00,23.7,22.8,27.99,SSE,158,0.0,0.0,96,0.00,,---,0.00,VWS V14.01,2013-01-10 10:07:00,
2013-01-10 02:12:00,23.7,22.8,27.99,SSE,158,0.0,0.0,96,0.00,,---,0.00,VWS V14.01,2013-01-10 10:12:00,
2013-01-10 02:17:00,23.5,22.6,27.99,SSE,158,0.9,0.9,96,0.00,,---,0.00,VWS V14.01,2013-01-10 10:17:00,
2013-01-10 02:22:00,23.9,22.9,27.99,SSE,158,0.0,0.0,96,0.00,,---,0.00,VWS V14.01,2013-01-10 10:22:00,
2013-01-10 02:27:00,23.9,23.2,27.99,SSE,158,0.0,0.0,97,0.00,,---,0.00,VWS V14.01,2013-01-10 10:27:00,
2013-01-10 02:32:00,23.7,23.0,27.99,SSE,158,0.0,0.0,97,0.00,,---,0.00,VWS V14.01,2013-01-10 10:32:00,
2013-01-10 02:37:00,23.9,23.2,27.99,SSE,158,0.0,0.0,97,0.00,,---,0.00,VWS V14.01,2013-01-10 10:37:00,
2013-01-10 02:42:00,23.9,23.2,27.99,SSE,158,0.0,0.0,97,0.00,,---,0.00,VWS V14.01,2013-01-10 10:42:00,
2013-01-10 02:47:00,23.5,22.8,27.99,SSE,158,0.0,0.0,97,0.00,,---,0.00,VWS V14.01,2013-01-10 10:47:00,
2013-01-10 02:52:00,23.9,23.2,27.99,SSE,158,0.0,0.0,97,0.00,,---,0.00,VWS V14.01,2013-01-10 10:52:00,
2013-01-10 02:57:00,23.7,23.0,27.99,SSE,158,0.0,0.0,97,0.00,,---,0.00,VWS V14.01,2013-01-10 10:57:00,
2013-01-10 03:02:00,23.7,23.0,28.02,SSE,158,0.0,0.0,97,0.00,,---,0.00,VWS V14.01,2013-01-10 11:02:00,
2013-01-10 03:07:00,23.7,23.0,28.02,SSE,158,0.0,0.0,97,0.00,,---,0.00,VWS V14.01,2013-01-10 11:07:00,
2013-01-10 03:12:00,24.3,23.5,28.02,SSE,158,0.0,0.0,97,0.00,,---,0.00,VWS V14.01,2013-01-10 11:12:00,
2013-01-10 03:17:00,24.3,23.8,28.02,SSE,158,0.0,0.0,98,0.00,,---,0.00,VWS V14.01,2013-01-10 11:17:00,
2013-01-10 03:22:00,24.3,23.8,28.02,SSE,158,0.0,0.0,98,0.00,,---,0.00,VWS V14.01,2013-01-10 11:22:00,
2013-01-10 03:27:00,24.4,24.0,28.02,SSE,158,0.0,0.0,98,0.00,,---,0.00,VWS V14.01,2013-01-10 11:27:00,
2013-01-10 03:32:00,24.6,24.1,28.02,SSE,158,0.0,0.0,98,0.00,,---,0.00,VWS V14.01,2013-01-10 11:32:00,
2013-01-10 03:37:00,24.8,24.3,28.02,SSE,158,0.0,0.0,98,0.00,,---,0.00,VWS V14.01,2013-01-10 11:37:00,
2013-01-10 03:42:00,25.0,24.5,28.02,SSE,158,0.0,0.0,98,0.00,,---,0.00,VWS V14.01,2013-01-10 11:42:00,
2013-01-10 03:47:00,24.6,24.1,28.02,SSE,158,0.0,0.0,98,0.00,,---,0.00,VWS V14.01,2013-01-10 11:47:00,
2013-01-10 03:52:00,24.6,24.1,28.02,SSE,158,0.0,0.0,98,0.00,,---,0.00,VWS V14.01,2013-01-10 11:52:00,
2013-01-10 03:57:00,24.6,24.1,28.02,SSE,158,0.0,0.0,98,0.00,,---,0.00,VWS V14.01,2013-01-10 11:57:00,
2013-01-10 04:02:00,24.4,24.0,28.02,SSE,158,0.0,0.0,98,0.00,,---,0.00,VWS V14.01,2013-01-10 12:02:00,
2013-01-10 04:07:00,24.4,23.7,28.02,SSE,158,0.0,0.0,97,0.00,,---,0.00,VWS V14.01,2013-01-10 12:07:00,
2013-01-10 04:12:00,24.3,23.5,28.02,SSE,158,0.0,0.0,97,0.00,,---,0.00,VWS V14.01,2013-01-10 12:12:00,
2013-01-10 04:17:00,24.4,23.7,28.02,SSE,158,0.0,0.0,97,0.00,,---,0.00,VWS V14.01,2013-01-10 12:17:00,
2013-01-10 04:22:00,24.6,23.9,28.02,SSE,158,0.0,0.0,97,0.00,,---,0.00,VWS V14.01,2013-01-10 12:22:00,
2013-01-10 04:27:00,24.3,23.5,28.02,SSE,158,0.0,0.0,97,0.00,,---,0.00,VWS V14.01,2013-01-10 12:27:00,
2013-01-10 04:32:00,24.3,23.5,28.02,SSE,158,0.0,0.0,97,0.00,,---,0.00,VWS V14.01,2013-01-10 12:32:00,
2013-01-10 04:38:00,24.3,23.5,28.02,SSE,158,0.0,0.0,97,0.00,,---,0.00,VWS V14.01,2013-01-10 12:38:00,
2013-01-10 04:43:00,24.1,23.4,28.02,SSE,158,0.0,0.0,97,0.00,,---,0.00,VWS V14.01,2013-01-10 12:43:00,
2013-01-10 04:48:00,24.1,23.4,28.02,SSE,158,0.0,0.0,97,0.00,,---,0.00,VWS V14.01,2013-01-10 12:48:00,
2013-01-10 04:53:00,23.9,22.9,28.02,SSE,158,0.0,0.0,96,0.00,,---,0.00,VWS V14.01,2013-01-10 12:53:00,
2013-01-10 04:58:00,23.5,22.6,28.02,SSE,158,0.0,0.0,96,0.00,,---,0.00,VWS V14.01,2013-01-10 12:58:00,
2013-01-10 05:06:00,23.5,22.6,28.02,SSE,158,0.0,0.0,96,0.00,,---,0.00,VWS V14.01,2013-01-10 13:06:00,
2013-01-10 05:11:00,23.7,22.8,28.02,SSE,158,0.0,0.0,96,0.00,,---,0.00,VWS V14.01,2013-01-10 13:11:00,
2013-01-10 05:16:00,23.5,22.6,28.02,SSE,158,0.0,0.0,96,0.00,,---,0.00,VWS V14.01,2013-01-10 13:16:00,
2013-01-10 05:21:00,23.4,22.4,28.02,SSE,158,0.0,0.0,96,0.00,,---,0.00,VWS V14.01,2013-01-10 13:21:00,
2013-01-10 05:26:00,23.4,22.4,28.02,SSE,158,0.0,0.0,96,0.00,,---,0.00,VWS V14.01,2013-01-10 13:26:00,
2013-01-10 05:31:00,23.4,22.4,28.02,SSE,158,0.0,0.0,96,0.00,,---,0.00,VWS V14.01,2013-01-10 13:31:00,
2013-01-10 05:36:00,23.5,22.6,28.02,SSE,158,0.0,0.0,96,0.00,,---,0.00,VWS V14.01,2013-01-10 13:36:00,
2013-01-10 05:41:00,23.5,22.6,28.02,SSE,158,0.0,0.0,96,0.00,,---,0.00,VWS V14.01,2013-01-10 13:41:00,
2013-01-10 05:46:00,23.5,22.8,28.02,SSE,158,0.0,0.0,97,0.00,,---,0.00,VWS V14.01,2013-01-10 13:46:00,
2013-01-10 05:51:00,23.5,22.8,28.02,SSE,158,0.0,0.0,97,0.00,,---,0.00,VWS V14.01,2013-01-10 13:51:00,
2013-01-10 05:56:00,23.4,22.4,28.02,SSE,158,0.0,0.0,96,0.00,,---,0.00,VWS V14.01,2013-01-10 13:56:00,
2013-01-10 06:01:00,22.8,21.9,28.02,SSE,158,0.0,0.0,96,0.00,,---,0.00,VWS V14.01,2013-01-10 14:01:00,
2013-01-10 06:06:00,22.5,21.2,28.02,SSE,158,0.0,0.0,95,0.00,,---,0.00,VWS V14.01,2013-01-10 14:06:00,
2013-01-10 06:11:00,22.6,21.4,28.02,SSE,158,0.0,0.0,95,0.00,,---,0.00,VWS V14.01,2013-01-10 14:11:00,
2013-01-10 06:16:00,22.5,21.2,28.02,SSE,158,0.0,0.0,95,0.00,,---,0.00,VWS V14.01,2013-01-10 14:16:00,
2013-01-10 06:21:00,22.3,21.1,28.02,SSE,158,0.0,0.0,95,0.00,,---,0.00,VWS V14.01,2013-01-10 14:21:00,
2013-01-10 06:26:00,22.3,21.1,28.02,SSE,158,0.0,0.0,95,0.00,,---,0.00,VWS V14.01,2013-01-10 14:26:00,
2013-01-10 06:31:00,22.3,21.1,28.05,SSE,158,0.0,0.0,95,0.00,,---,0.00,VWS V14.01,2013-01-10 14:31:00,
2013-01-10 06:36:00,22.1,20.9,28.05,SSE,158,0.0,0.0,95,0.00,,---,0.00,VWS V14.01,2013-01-10 14:36:00,
2013-01-10 06:41:00,22.6,21.7,28.05,SSE,158,0.0,0.0,96,0.00,,---,0.00,VWS V14.01,2013-01-10 14:41:00,
2013-01-10 06:46:00,22.8,21.9,28.05,SSE,158,0.0,0.0,96,0.00,,---,0.00,VWS V14.01,2013-01-10 14:46:00,
2013-01-10 06:51:00,22.8,22.1,28.05,SSE,158,0.0,0.0,97,0.00,,---,0.00,VWS V14.01,2013-01-10 14:51:00,
2013-01-10 06:56:00,22.8,22.1,28.05,SSE,158,0.0,0.0,97,0.00,,---,0.00,VWS V14.01,2013-01-10 14:56:00,
2013-01-10 07:01:00,22.5,21.5,28.05,SSE,158,0.0,0.0,96,0.00,,---,0.00,VWS V14.01,2013-01-10 15:01:00,
2013-01-10 07:06:00,22.1,21.1,28.05,SSE,158,0.0,0.0,96,0.00,,---,0.00,VWS V14.01,2013-01-10 15:06:00,
2013-01-10 07:11:00,21.7,20.5,28.05,SSE,158,0.0,0.0,95,0.00,,---,0.00,VWS V14.01,2013-01-10 15:11:00,
2013-01-10 07:16:00,21.4,19.9,28.08,SSE,158,0.0,0.0,94,0.00,,---,0.00,VWS V14.01,2013-01-10 15:16:00,
2013-01-10 07:21:00,21.2,19.8,28.08,SSE,158,0.0,0.0,94,0.00,,---,0.00,VWS V14.01,2013-01-10 15:21:00,
2013-01-10 07:26:00,21.4,19.9,28.08,SSE,158,0.0,0.0,94,0.00,,---,0.00,VWS V14.01,2013-01-10 15:26:00,
2013-01-10 07:31:00,21.0,19.6,28.08,SSE,158,0.0,0.0,94,0.00,,---,0.00,VWS V14.01,2013-01-10 15:31:00,
2013-01-10 07:36:00,20.7,19.2,28.08,SSE,158,0.0,0.0,94,0.00,,---,0.00,VWS V14.01,2013-01-10 15:36:00,
2013-01-10 07:41:00,20.7,19.0,28.08,SSE,158,0.0,0.0,93,0.00,,---,0.00,VWS V14.01,2013-01-10 15:41:00,
2013-01-10 07:46:00,20.3,18.6,28.08,SSE,158,0.0,0.0,93,0.00,,---,0.00,VWS V14.01,2013-01-10 15:46:00,
2013-01-10 07:51:00,20.3,18.6,28.08,SSE,158,0.0,0.0,93,0.00,,---,0.00,VWS V14.01,2013-01-10 15:51:00,
2013-01-10 07:56:00,20.5,18.8,28.08,SSE,158,0.0,0.0,93,0.00,,---,0.00,VWS V14.01,2013-01-10 15:56:00,
2013-01-10 08:01:00,20.1,18.4,28.08,SSE,158,0.0,0.0,93,0.00,,---,0.00,VWS V14.01,2013-01-10 16:01:00,
2013-01-10 08:06:00,20.3,18.6,28.08,SSE,158,0.0,0.0,93,0.00,,---,0.00,VWS V14.01,2013-01-10 16:06:00,
2013-01-10 08:11:00,20.3,18.6,28.08,SSE,158,0.0,0.0,93,0.00,,---,0.00,VWS V14.01,2013-01-10 16:11:00,
2013-01-10 08:16:00,20.1,18.4,28.08,SSE,158,0.0,0.0,93,0.00,,---,0.00,VWS V14.01,2013-01-10 16:16:00,
2013-01-10 08:21:00,19.9,18.2,28.08,SSE,158,0.0,0.0,93,0.00,,---,0.00,VWS V14.01,2013-01-10 16:21:00,
2013-01-10 08:26:00,20.5,19.0,28.08,SSE,158,0.0,0.0,94,0.00,,---,0.00,VWS V14.01,2013-01-10 16:26:00,
2013-01-10 08:31:00,20.5,19.0,28.08,SSE,158,0.0,0.0,94,0.00,,---,0.00,VWS V14.01,2013-01-10 16:31:00,
2013-01-10 08:36:00,20.3,18.9,28.08,SSE,158,0.0,0.0,94,0.00,,---,0.00,VWS V14.01,2013-01-10 16:36:00,
2013-01-10 08:41:00,20.3,18.9,28.08,SSE,158,0.0,0.0,94,0.00,,---,0.00,VWS V14.01,2013-01-10 16:41:00,
2013-01-10 08:46:00,20.5,19.0,28.08,SSE,158,0.0,0.0,94,0.00,,---,0.00,VWS V14.01,2013-01-10 16:46:00,
2013-01-10 08:51:00,20.3,18.9,28.08,SSE,158,0.0,0.0,94,0.00,,---,0.00,VWS V14.01,2013-01-10 16:51:00,
2013-01-10 08:56:00,20.3,18.6,28.08,SSE,158,0.0,0.0,93,0.00,,---,0.00,VWS V14.01,2013-01-10 16:56:00,
2013-01-10 09:01:00,20.3,18.6,28.11,SSE,158,0.0,0.0,93,0.00,,---,0.00,VWS V14.01,2013-01-10 17:01:00,
2013-01-10 09:06:00,20.3,18.6,28.11,SSE,158,0.0,0.0,93,0.00,,---,0.00,VWS V14.01,2013-01-10 17:06:00,
2013-01-10 09:11:00,20.1,18.4,28.11,SSE,158,0.0,0.0,93,0.00,,---,0.00,VWS V14.01,2013-01-10 17:11:00,
2013-01-10 09:16:00,19.9,18.2,28.11,SSE,158,0.0,0.0,93,0.00,,---,0.00,VWS V14.01,2013-01-10 17:16:00,
2013-01-10 09:22:00,19.8,17.8,28.11,SSE,158,0.0,0.0,92,0.00,,---,0.00,VWS V14.01,2013-01-10 17:22:00,
2013-01-10 09:27:00,19.8,17.8,28.11,SSE,158,0.0,0.0,92,0.00,,---,0.00,VWS V14.01,2013-01-10 17:27:00,
2013-01-10 09:32:00,19.8,17.8,28.11,SSE,158,0.0,0.0,92,0.00,,---,0.00,VWS V14.01,2013-01-10 17:32:00,
2013-01-10 09:37:00,19.8,17.8,28.11,SSE,158,0.0,0.0,92,0.00,,---,0.00,VWS V14.01,2013-01-10 17:37:00,
2013-01-10 09:42:00,19.9,18.0,28.11,SSE,158,0.0,0.0,92,0.00,,---,0.00,VWS V14.01,2013-01-10 17:42:00,
2013-01-10 09:47:00,20.5,18.8,28.11,SSE,158,0.0,0.0,93,0.00,,---,0.00,VWS V14.01,2013-01-10 17:47:00,
2013-01-10 09:52:00,21.0,19.6,28.11,SSE,158,0.0,0.0,94,0.00,,---,0.00,VWS V14.01,2013-01-10 17:52:00,
2013-01-10 09:57:00,21.4,19.9,28.11,SSE,158,0.0,0.0,94,0.00,,---,0.00,VWS V14.01,2013-01-10 17:57:00,
2013-01-10 10:02:00,21.6,20.4,28.08,SSE,158,0.0,0.0,95,0.00,,---,0.00,VWS V14.01,2013-01-10 18:02:00,
2013-01-10 10:07:00,21.7,20.5,28.08,SSE,158,0.0,0.0,95,0.00,,---,0.00,VWS V14.01,2013-01-10 18:07:00,
2013-01-10 10:12:00,21.9,20.7,28.08,SSE,158,0.0,0.0,95,0.00,,---,0.00,VWS V14.01,2013-01-10 18:12:00,
2013-01-10 10:17:00,22.3,21.1,28.11,SSE,158,0.0,0.0,95,0.00,,---,0.00,VWS V14.01,2013-01-10 18:17:00,
2013-01-10 10:22:00,22.8,21.9,28.11,SSE,158,0.0,0.0,96,0.00,,---,0.00,VWS V14.01,2013-01-10 18:22:00,
2013-01-10 10:27:00,23.9,22.9,28.11,SSE,158,0.0,0.0,96,0.00,,---,0.00,VWS V14.01,2013-01-10 18:27:00,
2013-01-10 10:32:00,24.4,23.7,28.08,SSE,158,0.0,0.0,97,0.00,,---,0.00,VWS V14.01,2013-01-10 18:32:00,
2013-01-10 10:37:00,24.4,23.7,28.08,SSE,158,0.0,0.0,97,0.00,,---,0.00,VWS V14.01,2013-01-10 18:37:00,
2013-01-10 10:42:00,24.3,23.5,28.08,SSE,158,0.0,0.0,97,0.00,,---,0.00,VWS V14.01,2013-01-10 18:42:00,
2013-01-10 10:47:00,24.3,23.3,28.11,SSE,158,0.0,0.0,96,0.00,,---,0.00,VWS V14.01,2013-01-10 18:47:00,
2013-01-10 10:52:00,24.4,23.5,28.11,SSE,158,0.0,0.0,96,0.00,,---,0.00,VWS V14.01,2013-01-10 18:52:00,
2013-01-10 10:57:00,24.8,23.8,28.11,SSE,158,0.0,0.0,96,0.00,,---,0.00,VWS V14.01,2013-01-10 18:57:00,
2013-01-10 11:02:00,25.3,24.4,28.08,SSE,158,0.0,0.0,96,0.00,,---,0.00,VWS V14.01,2013-01-10 19:02:00,
2013-01-10 11:07:00,25.3,24.4,28.08,SSE,158,0.0,0.0,96,0.00,,---,0.00,VWS V14.01,2013-01-10 19:07:00,
2013-01-10 11:12:00,25.5,24.5,28.08,SSE,158,0.0,0.0,96,0.00,,---,0.00,VWS V14.01,2013-01-10 19:12:00,
2013-01-10 11:17:00,25.9,24.9,28.08,SSE,158,0.0,0.0,96,0.00,,---,0.00,VWS V14.01,2013-01-10 19:17:00,
2013-01-10 11:22:00,25.9,24.9,28.08,SSE,158,0.0,0.0,96,0.00,,---,0.00,VWS V14.01,2013-01-10 19:22:00,
2013-01-10 11:27:00,26.4,25.7,28.08,SSE,158,0.0,0.0,97,0.00,,---,0.00,VWS V14.01,2013-01-10 19:27:00,
2013-01-10 11:32:00,26.6,25.6,28.05,SSE,158,0.0,0.0,96,0.00,,---,0.00,VWS V14.01,2013-01-10 19:32:00,
2013-01-10 11:37:00,27.7,26.7,28.05,SSE,158,0.0,0.0,96,0.00,,---,0.00,VWS V14.01,2013-01-10 19:37:00,
2013-01-10 11:42:00,27.9,27.1,28.05,SSE,158,0.0,0.0,97,0.00,,---,0.00,VWS V14.01,2013-01-10 19:42:00,
2013-01-10 11:47:00,28.4,27.7,28.05,SSE,158,0.0,0.0,97,0.00,,---,0.00,VWS V14.01,2013-01-10 19:47:00,
2013-01-10 11:52:00,28.4,27.7,28.05,SSE,158,0.0,0.0,97,0.00,,---,0.00,VWS V14.01,2013-01-10 19:52:00,
2013-01-10 11:57:00,27.9,26.9,28.05,SSE,158,0.0,0.0,96,0.00,,---,0.00,VWS V14.01,2013-01-10 19:57:00,
2013-01-10 12:02:00,27.7,26.4,28.05,SSE,158,0.0,0.0,95,0.00,,---,0.00,VWS V14.01,2013-01-10 20:02:00,
2013-01-10 12:07:00,27.3,25.8,28.05,SSE,158,0.0,0.0,94,0.00,,---,0.00,VWS V14.01,2013-01-10 20:07:00,
2013-01-10 12:12:00,27.0,25.2,28.05,SSE,158,0.0,0.0,93,0.00,,---,0.00,VWS V14.01,2013-01-10 20:12:00,
2013-01-10 12:17:00,26.8,24.8,28.05,SSE,158,0.0,0.0,92,0.00,,---,0.00,VWS V14.01,2013-01-10 20:17:00,
2013-01-10 12:22:00,26.4,24.4,28.05,SSE,158,0.0,0.0,92,0.00,,---,0.00,VWS V14.01,2013-01-10 20:22:00,
2013-01-10 12:27:00,26.2,24.0,28.05,SSE,158,0.0,0.0,91,0.00,,---,0.00,VWS V14.01,2013-01-10 20:27:00,
2013-01-10 12:32:00,26.4,24.4,28.05,SSE,158,0.0,0.0,92,0.00,,---,0.00,VWS V14.01,2013-01-10 20:32:00,
2013-01-10 12:37:00,26.4,24.4,28.05,SSE,158,0.0,0.0,92,0.00,,---,0.00,VWS V14.01,2013-01-10 20:37:00,
2013-01-10 12:42:00,26.2,24.2,28.05,SSE,158,0.0,0.0,92,0.00,,---,0.00,VWS V14.01,2013-01-10 20:42:00,
2013-01-10 12:47:00,26.2,24.2,28.05,SSE,158,0.0,0.0,92,0.00,,---,0.00,VWS V14.01,2013-01-10 20:47:00,
2013-01-10 12:52:00,26.6,24.6,28.05,SSE,158,0.0,0.0,92,0.00,,---,0.00,VWS V14.01,2013-01-10 20:52:00,
2013-01-10 12:57:00,26.8,25.0,28.05,SSE,158,0.0,0.0,93,0.00,,---,0.00,VWS V14.01,2013-01-10 20:57:00,
2013-01-10 13:02:00,27.0,25.2,28.05,SSE,158,0.0,0.0,93,0.00,,---,0.00,VWS V14.01,2013-01-10 21:02:00,
2013-01-10 13:07:00,27.0,25.2,28.05,SSE,158,0.0,0.0,93,0.00,,---,0.00,VWS V14.01,2013-01-10 21:07:00,
2013-01-10 13:12:00,27.1,25.4,28.05,SSE,158,0.0,0.0,93,0.00,,---,0.00,VWS V14.01,2013-01-10 21:12:00,
2013-01-10 13:18:00,27.1,25.6,28.05,SSE,158,0.0,0.0,94,0.00,,---,0.00,VWS V14.01,2013-01-10 21:18:00,
2013-01-10 13:22:00,27.3,25.8,28.05,SSE,158,0.0,0.0,94,0.00,,---,0.00,VWS V14.01,2013-01-10 21:22:00,
2013-01-10 13:27:00,27.1,25.6,28.05,SSE,158,0.0,0.0,94,0.00,,---,0.00,VWS V14.01,2013-01-10 21:27:00,
2013-01-10 13:33:00,27.3,25.8,28.05,SSE,158,0.0,0.0,94,0.00,,---,0.00,VWS V14.01,2013-01-10 21:33:00,
2013-01-10 13:38:00,27.3,25.8,28.05,SSE,158,0.0,0.0,94,0.00,,---,0.00,VWS V14.01,2013-01-10 21:38:00,
2013-01-10 13:43:00,27.9,26.4,28.05,SSE,158,0.0,0.0,94,0.00,,---,0.00,VWS V14.01,2013-01-10 21:43:00,
2013-01-10 13:48:00,28.6,27.3,28.05,SSE,158,0.0,0.0,95,0.00,,---,0.00,VWS V14.01,2013-01-10 21:48:00,
2013-01-10 13:53:00,29.5,28.5,28.05,SSE,158,0.0,0.0,96,0.00,,---,0.00,VWS V14.01,2013-01-10 21:53:00,
2013-01-10 13:58:00,30.0,29.0,28.05,SSE,158,0.0,0.0,96,0.00,,---,0.00,VWS V14.01,2013-01-10 21:58:00,
2013-01-10 14:03:00,29.8,28.8,28.05,SSE,158,0.0,0.0,96,0.00,,---,0.00,VWS V14.01,2013-01-10 22:03:00,
2013-01-10 14:08:00,30.2,29.2,28.05,SSE,158,0.0,0.0,96,0.00,,---,0.00,VWS V14.01,2013-01-10 22:08:00,
2013-01-10 14:13:00,30.7,29.7,28.05,SSE,158,0.0,0.0,96,0.00,,---,0.00,VWS V14.01,2013-01-10 22:13:00,
2013-01-10 14:18:00,30.7,29.7,28.05,SSE,158,0.0,0.0,96,0.00,,---,0.00,VWS V14.01,2013-01-10 22:18:00,
2013-01-10 14:23:00,30.7,29.7,28.05,SSE,158,0.0,0.0,96,0.00,,---,0.00,VWS V14.01,2013-01-10 22:23:00,
2013-01-10 14:28:00,30.2,29.2,28.05,SSE,158,0.0,0.0,96,0.00,,---,0.00,VWS V14.01,2013-01-10 22:28:00,
2013-01-10 14:33:00,30.2,28.9,28.05,SSE,158,0.0,0.0,95,0.00,,---,0.00,VWS V14.01,2013-01-10 22:33:00,
2013-01-10 14:38:00,30.2,28.9,28.05,SSE,158,0.0,0.0,95,0.00,,---,0.00,VWS V14.01,2013-01-10 22:38:00,
2013-01-10 14:43:00,30.2,28.9,28.05,SSE,158,0.0,0.0,95,0.00,,---,0.00,VWS V14.01,2013-01-10 22:43:00,
2013-01-10 14:48:00,29.5,28.0,28.05,SSE,158,0.0,0.0,94,0.00,,---,0.00,VWS V14.01,2013-01-10 22:48:00,
2013-01-10 14:53:00,29.3,27.8,28.05,SSE,158,0.0,0.0,94,0.00,,---,0.00,VWS V14.01,2013-01-10 22:53:00,
2013-01-10 14:58:00,28.9,27.2,28.05,SSE,158,0.0,0.0,93,0.00,,---,0.00,VWS V14.01,2013-01-10 22:58:00,
2013-01-10 15:03:00,28.8,27.0,28.05,SSE,158,0.0,0.0,93,0.00,,---,0.00,VWS V14.01,2013-01-10 23:03:00,
2013-01-10 15:08:00,28.0,26.0,28.05,SSE,158,0.0,0.0,92,0.00,,---,0.00,VWS V14.01,2013-01-10 23:08:00,
2013-01-10 15:13:00,27.9,25.8,28.05,SSE,158,0.0,0.0,92,0.00,,---,0.00,VWS V14.01,2013-01-10 23:13:00,
2013-01-10 15:18:00,27.9,25.8,28.05,SSE,158,0.0,0.0,92,0.00,,---,0.00,VWS V14.01,2013-01-10 23:18:00,
2013-01-10 15:23:00,27.3,25.3,28.05,SSE,158,0.0,0.0,92,0.00,,---,0.00,VWS V14.01,2013-01-10 23:23:00,
2013-01-10 15:28:00,27.0,24.7,28.05,SSE,158,0.0,0.0,91,0.00,,---,0.00,VWS V14.01,2013-01-10 23:28:00,
2013-01-10 15:33:00,26.6,24.6,28.08,SSE,158,0.0,0.0,92,0.00,,---,0.00,VWS V14.01,2013-01-10 23:33:00,
2013-01-10 15:38:00,26.1,23.8,28.08,SSE,158,0.0,0.0,91,0.00,,---,0.00,VWS V14.01,2013-01-10 23:38:00,
2013-01-10 15:43:00,26.1,23.8,28.05,SSE,158,0.0,0.0,91,0.00,,---,0.00,VWS V14.01,2013-01-10 23:43:00,
2013-01-10 15:48:00,26.1,24.1,28.05,SSE,158,0.0,0.0,92,0.00,,---,0.00,VWS V14.01,2013-01-10 23:48:00,
2013-01-10 15:53:00,25.3,23.1,28.05,SSE,158,0.0,0.0,91,0.00,,---,0.00,VWS V14.01,2013-01-10 23:53:00,
2013-01-10 15:58:00,25.2,22.9,28.08,SSE,158,0.0,0.0,91,0.00,,---,0.00,VWS V14.01,2013-01-10 23:58:00,
2013-01-10 16:03:00,25.0,22.7,28.08,SSE,158,0.0,0.0,91,0.00,,---,0.00,VWS V14.01,2013-01-11 00:03:00,
2013-01-10 16:09:00,24.4,22.2,28.08,SSE,158,0.0,0.0,91,0.00,,---,0.00,VWS V14.01,2013-01-11 00:09:00,
2013-01-10 16:14:00,24.4,22.2,28.08,SSE,158,0.0,0.0,91,0.00,,---,0.00,VWS V14.01,2013-01-11 00:14:00,
2013-01-10 16:19:00,23.7,21.5,28.08,SSE,158,0.0,0.0,91,0.00,,---,0.00,VWS V14.01,2013-01-11 00:19:00,
2013-01-10 16:24:00,23.5,21.3,28.08,SSE,158,0.0,0.0,91,0.00,,---,0.00,VWS V14.01,2013-01-11 00:24:00,
2013-01-10 16:29:00,23.4,21.1,28.08,SSE,158,0.0,0.0,91,0.00,,---,0.00,VWS V14.01,2013-01-11 00:29:00,
2013-01-10 16:34:00,23.0,20.8,28.08,SSE,158,0.0,0.0,91,0.00,,---,0.00,VWS V14.01,2013-01-11 00:34:00,
2013-01-10 16:39:00,23.0,20.8,28.08,SSE,158,0.0,0.0,91,0.00,,---,0.00,VWS V14.01,2013-01-11 00:39:00,
2013-01-10 16:44:00,22.8,20.9,28.08,SSE,158,0.0,0.0,92,0.00,,---,0.00,VWS V14.01,2013-01-11 00:44:00,
2013-01-10 16:49:00,22.6,20.7,28.08,SSE,158,0.0,0.0,92,0.00,,---,0.00,VWS V14.01,2013-01-11 00:49:00,
2013-01-10 16:54:00,22.1,19.9,28.08,SSE,158,0.0,0.0,91,0.00,,---,0.00,VWS V14.01,2013-01-11 00:54:00,
2013-01-10 16:59:00,21.7,19.5,28.08,SSE,158,0.0,0.0,91,0.00,,---,0.00,VWS V14.01,2013-01-11 00:59:00,
2013-01-10 17:04:00,21.7,19.5,28.08,SSE,158,0.0,0.0,91,0.00,,---,0.00,VWS V14.01,2013-01-11 01:04:00,
2013-01-10 17:09:00,21.9,19.7,28.08,SSE,158,0.0,0.0,91,0.00,,---,0.00,VWS V14.01,2013-01-11 01:09:00,
2013-01-10 17:14:00,21.4,19.2,28.08,SSE,158,0.0,0.0,91,0.00,,---,0.00,VWS V14.01,2013-01-11 01:14:00,
2013-01-10 17:19:00,21.6,19.6,28.08,SSE,158,0.0,0.0,92,0.00,,---,0.00,VWS V14.01,2013-01-11 01:19:00,
2013-01-10 17:24:00,21.9,20.0,28.08,SSE,158,0.0,0.0,92,0.00,,---,0.00,VWS V14.01,2013-01-11 01:24:00,
2013-01-10 17:29:00,21.4,19.4,28.08,SSE,158,0.0,0.0,92,0.00,,---,0.00,VWS V14.01,2013-01-11 01:29:00,
2013-01-10 17:34:00,20.7,18.7,28.08,SSE,158,0.0,0.0,92,0.00,,---,0.00,VWS V14.01,2013-01-11 01:34:00,
2013-01-10 17:39:00,20.3,18.1,28.08,SSE,158,0.0,0.0,91,0.00,,---,0.00,VWS V14.01,2013-01-11 01:39:00,
2013-01-10 17:44:00,20.1,17.7,28.08,SSE,158,0.0,0.0,90,0.00,,---,0.00,VWS V14.01,2013-01-11 01:44:00,
2013-01-10 17:49:00,20.1,17.9,28.08,SSE,158,0.0,0.0,91,0.00,,---,0.00,VWS V14.01,2013-01-11 01:49:00,
2013-01-10 17:54:00,19.8,17.3,28.08,SSE,158,0.0,0.0,90,0.00,,---,0.00,VWS V14.01,2013-01-11 01:54:00,
2013-01-10 17:59:00,19.6,17.1,28.08,SSE,158,0.0,0.0,90,0.00,,---,0.00,VWS V14.01,2013-01-11 01:59:00,
2013-01-10 18:04:00,19.6,17.1,28.08,SSE,158,0.0,0.0,90,0.00,,---,0.00,VWS V14.01,2013-01-11 02:04:00,
2013-01-10 18:09:00,19.2,17.0,28.08,SSE,158,0.0,0.0,91,0.00,,---,0.00,VWS V14.01,2013-01-11 02:09:00,
2013-01-10 18:14:00,19.0,16.9,28.11,SSE,158,0.0,0.0,91,0.00,,---,0.00,VWS V14.01,2013-01-11 02:14:00,
2013-01-10 18:19:00,19.2,17.0,28.11,SSE,158,0.0,0.0,91,0.00,,---,0.00,VWS V14.01,2013-01-11 02:19:00,
2013-01-10 18:24:00,18.5,16.3,28.11,SSE,158,0.0,0.0,91,0.00,,---,0.00,VWS V14.01,2013-01-11 02:24:00,
2013-01-10 18:29:00,18.7,16.5,28.11,SSE,158,0.0,0.0,91,0.00,,---,0.00,VWS V14.01,2013-01-11 02:29:00,
2013-01-10 18:34:00,18.1,16.0,28.11,SSE,158,0.0,0.0,91,0.00,,---,0.00,VWS V14.01,2013-01-11 02:34:00,
2013-01-10 18:39:00,18.1,16.0,28.11,SSE,158,0.0,0.0,91,0.00,,---,0.00,VWS V14.01,2013-01-11 02:39:00,
2013-01-10 18:44:00,17.6,15.4,28.11,SSE,158,0.0,0.0,91,0.00,,---,0.00,VWS V14.01,2013-01-11 02:44:00,
2013-01-10 18:49:00,16.9,14.5,28.11,SSE,158,0.0,0.0,90,0.00,,---,0.00,VWS V14.01,2013-01-11 02:49:00,
2013-01-10 18:54:00,17.1,14.6,28.11,SSE,158,0.0,0.0,90,0.00,,---,0.00,VWS V14.01,2013-01-11 02:54:00,
2013-01-10 18:59:00,16.9,14.5,28.11,SSE,158,0.0,0.0,90,0.00,,---,0.00,VWS V14.01,2013-01-11 02:59:00,
2013-01-10 19:04:00,16.7,14.3,28.11,SSE,158,0.0,0.0,90,0.00,,---,0.00,VWS V14.01,2013-01-11 03:04:00,
2013-01-10 19:09:00,16.3,13.9,28.11,SSE,158,0.0,0.0,90,0.00,,---,0.00,VWS V14.01,2013-01-11 03:09:00,
2013-01-10 19:14:00,16.2,13.8,28.11,SSE,158,0.0,0.0,90,0.00,,---,0.00,VWS V14.01,2013-01-11 03:14:00,
2013-01-10 19:19:00,16.3,13.9,28.11,SSE,158,0.0,0.0,90,0.00,,---,0.00,VWS V14.01,2013-01-11 03:19:00,
2013-01-10 19:24:00,15.8,13.4,28.11,SSE,158,0.0,0.0,90,0.00,,---,0.00,VWS V14.01,2013-01-11 03:24:00,
2013-01-10 19:29:00,16.2,13.8,28.11,SSE,158,0.0,0.0,90,0.00,,---,0.00,VWS V14.01,2013-01-11 03:29:00,
2013-01-10 19:34:00,16.0,13.6,28.11,SSE,158,0.0,0.0,90,0.00,,---,0.00,VWS V14.01,2013-01-11 03:34:00,
2013-01-10 19:39:00,15.3,12.9,28.11,SSE,158,0.0,0.0,90,0.00,,---,0.00,VWS V14.01,2013-01-11 03:39:00,
2013-01-10 19:44:00,15.3,12.9,28.14,SSE,158,0.0,0.0,90,0.00,,---,0.00,VWS V14.01,2013-01-11 03:44:00,
2013-01-10 19:49:00,14.9,12.2,28.14,SSE,158,0.0,0.0,89,0.00,,---,0.00,VWS V14.01,2013-01-11 03:49:00,
2013-01-10 19:54:00,14.9,12.2,28.14,SSE,158,0.0,0.0,89,0.00,,---,0.00,VWS V14.01,2013-01-11 03:54:00,
2013-01-10 20:00:00,14.9,12.5,28.14,SSE,158,0.0,0.0,90,0.00,,---,0.00,VWS V14.01,2013-01-11 04:00:00,
2013-01-10 20:05:00,14.7,12.3,28.14,SSE,158,0.0,0.0,90,0.00,,---,0.00,VWS V14.01,2013-01-11 04:05:00,
2013-01-10 20:10:00,14.4,11.7,28.14,SSE,158,0.0,0.0,89,0.00,,---,0.00,VWS V14.01,2013-01-11 04:10:00,
2013-01-10 20:15:00,14.9,12.2,28.14,SSE,158,0.0,0.0,89,0.00,,---,0.00,VWS V14.01,2013-01-11 04:15:00,
2013-01-10 20:20:00,14.5,12.1,28.14,SSE,158,0.0,0.0,90,0.00,,---,0.00,VWS V14.01,2013-01-11 04:20:00,
2013-01-10 20:25:00,14.2,11.5,28.14,SSE,158,0.0,0.0,89,0.00,,---,0.00,VWS V14.01,2013-01-11 04:25:00,
2013-01-10 20:30:00,14.2,11.5,28.14,SSE,158,0.0,0.0,89,0.00,,---,0.00,VWS V14.01,2013-01-11 04:30:00,
2013-01-10 20:35:00,14.0,11.6,28.14,SSE,158,0.0,0.0,90,0.00,,---,0.00,VWS V14.01,2013-01-11 04:35:00,
2013-01-10 20:40:00,13.5,11.1,28.14,SSE,158,0.0,0.0,90,0.00,,---,0.00,VWS V14.01,2013-01-11 04:40:00,
2013-01-10 20:45:00,13.8,11.4,28.14,SSE,158,0.0,0.0,90,0.00,,---,0.00,VWS V14.01,2013-01-11 04:45:00,
2013-01-10 20:50:00,13.5,11.1,28.14,SSE,158,0.0,0.0,90,0.00,,---,0.00,VWS V14.01,2013-01-11 04:50:00,
2013-01-10 20:55:00,13.1,10.7,28.14,SSE,158,0.0,0.0,90,0.00,,---,0.00,VWS V14.01,2013-01-11 04:55:00,
2013-01-10 21:00:00,12.9,10.6,28.14,SSE,158,0.0,0.0,90,0.00,,---,0.00,VWS V14.01,2013-01-11 05:00:00,
2013-01-10 21:03:00,12.7,10.4,28.14,SSE,158,0.0,0.0,90,0.00,,---,0.00,VWS V14.01,2013-01-11 05:03:00,
2013-01-10 21:04:00,12.7,10.4,28.14,SSE,158,0.0,0.0,90,0.00,,---,0.00,VWS V14.01,2013-01-11 05:04:00,
2013-01-10 21:09:00,12.9,10.6,28.14,SSE,158,0.0,0.0,90,0.00,,---,0.00,VWS V14.01,2013-01-11 05:09:00,
2013-01-10 21:14:00,12.4,10.0,28.14,SSE,158,0.0,0.0,90,0.00,,---,0.00,VWS V14.01,2013-01-11 05:14:00,
2013-01-10 21:19:00,12.2,9.8,28.14,SSE,158,0.0,0.0,90,0.00,,---,0.00,VWS V14.01,2013-01-11 05:19:00,
2013-01-10 21:24:00,12.0,9.7,28.14,SSE,158,0.0,0.0,90,0.00,,---,0.00,VWS V14.01,2013-01-11 05:24:00,
2013-01-10 21:29:00,12.4,10.0,28.14,SSE,158,0.0,0.0,90,0.00,,---,0.00,VWS V14.01,2013-01-11 05:29:00,
2013-01-10 21:34:00,12.2,9.8,28.14,SSE,158,0.0,0.0,90,0.00,,---,0.00,VWS V14.01,2013-01-11 05:34:00,
2013-01-10 21:39:00,12.6,10.2,28.14,SSE,158,0.0,0.0,90,0.00,,---,0.00,VWS V14.01,2013-01-11 05:39:00,
2013-01-10 21:44:00,11.8,9.5,28.14,SSE,158,0.0,0.0,90,0.00,,---,0.00,VWS V14.01,2013-01-11 05:44:00,
2013-01-10 21:49:00,11.7,9.3,28.14,SSE,158,0.0,0.0,90,0.00,,---,0.00,VWS V14.01,2013-01-11 05:49:00,
2013-01-10 21:54:00,11.3,8.9,28.14,SSE,158,0.0,0.0,90,0.00,,---,0.00,VWS V14.01,2013-01-11 05:54:00,
2013-01-10 21:59:00,11.5,9.1,28.14,SSE,158,0.0,0.0,90,0.00,,---,0.00,VWS V14.01,2013-01-11 05:59:00,
2013-01-10 22:04:00,11.8,9.5,28.14,SSE,158,0.0,0.0,90,0.00,,---,0.00,VWS V14.01,2013-01-11 06:04:00,
2013-01-10 22:09:00,11.8,9.5,28.14,SSE,158,0.0,0.0,90,0.00,,---,0.00,VWS V14.01,2013-01-11 06:09:00,
2013-01-10 22:14:00,11.1,8.8,28.17,SSE,158,0.0,0.0,90,0.00,,---,0.00,VWS V14.01,2013-01-11 06:14:00,
2013-01-10 22:19:00,11.1,8.8,28.17,SSE,158,0.0,0.0,90,0.00,,---,0.00,VWS V14.01,2013-01-11 06:19:00,
2013-01-10 22:24:00,10.8,8.4,28.17,SSE,158,0.0,0.0,90,0.00,,---,0.00,VWS V14.01,2013-01-11 06:24:00,
2013-01-10 22:29:00,10.4,8.1,28.17,SSE,158,0.0,0.0,90,0.00,,---,0.00,VWS V14.01,2013-01-11 06:29:00,
2013-01-10 22:34:00,11.1,8.8,28.14,SSE,158,0.0,0.0,90,0.00,,---,0.00,VWS V14.01,2013-01-11 06:34:00,
2013-01-10 22:39:00,11.1,8.8,28.14,SSE,158,0.0,0.0,90,0.00,,---,0.00,VWS V14.01,2013-01-11 06:39:00,
2013-01-10 22:44:00,10.6,8.2,28.14,SSE,158,0.0,0.0,90,0.00,,---,0.00,VWS V14.01,2013-01-11 06:44:00,
2013-01-10 22:49:00,10.4,8.1,28.14,SSE,158,0.0,0.0,90,0.00,,---,0.00,VWS V14.01,2013-01-11 06:49:00,
2013-01-10 22:54:00,10.2,7.9,28.14,SSE,158,0.0,0.0,90,0.00,,---,0.00,VWS V14.01,2013-01-11 06:54:00,
2013-01-10 22:59:00,10.0,7.7,28.17,SSE,158,0.0,0.0,90,0.00,,---,0.00,VWS V14.01,2013-01-11 06:59:00,
2013-01-10 23:04:00,10.0,7.7,28.17,SSE,158,0.0,0.0,90,0.00,,---,0.00,VWS V14.01,2013-01-11 07:04:00,
2013-01-10 23:09:00,9.9,7.5,28.17,SSE,158,0.0,0.0,90,0.00,,---,0.00,VWS V14.01,2013-01-11 07:09:00,
2013-01-10 23:14:00,9.7,7.3,28.17,SSE,158,0.0,0.0,90,0.00,,---,0.00,VWS V14.01,2013-01-11 07:14:00,
2013-01-10 23:19:00,9.3,7.0,28.17,SSE,158,0.0,0.0,90,0.00,,---,0.00,VWS V14.01,2013-01-11 07:19:00,
2013-01-10 23:24:00,9.7,7.3,28.17,SSE,158,0.0,0.0,90,0.00,,---,0.00,VWS V14.01,2013-01-11 07:24:00,
2013-01-10 23:29:00,10.0,7.7,28.17,SSE,158,0.0,0.0,90,0.00,,---,0.00,VWS V14.01,2013-01-11 07:29:00,
2013-01-10 23:35:00,9.5,7.2,28.17,SSE,158,0.0,0.0,90,0.00,,---,0.00,VWS V14.01,2013-01-11 07:35:00,
2013-01-10 23:40:00,9.1,6.8,28.17,SSE,158,0.0,0.0,90,0.00,,---,0.00,VWS V14.01,2013-01-11 07:40:00,
2013-01-10 23:45:00,8.8,6.4,28.17,SSE,158,0.0,0.0,90,0.00,,---,0.00,VWS V14.01,2013-01-11 07:45:00,
2013-01-10 23:50:00,8.6,6.3,28.17,SSE,158,0.0,0.0,90,0.00,,---,0.00,VWS V14.01,2013-01-11 07:50:00,
2013-01-10 23:55:00,8.4,6.1,28.17,SSE,158,0.0,0.0,90,0.00,,---,0.00,VWS V14.01,2013-01-11 07:55:00,